STARLINK-1106 (44923 NORAD) Tracking and Keplerian Element Data

This shows tracking and keplerian element data for the satellite.

Feedback or suggestion? Click here.




ElementValue
Catalog44923
NameSTARLINK-1106
Epoch Orbit715
Epoch Day53.25001157
Epoch Year2020
RAAN176.2002
Inclination52.9982
Eccentricity0.0001248
Argument of Perigee82.4339
Mean Anonmoly121.475
Mean Motion15.05555824
Decay Rate0.00120881
L11 44923U 20001K 20053.25001157 .00120881 00000-0 81797-2 0 9990
L22 44923 52.9982 176.2002 0001248 82.4339 121.4750 15.05555824 7154

Live tracking and technical data element details for STARLINK-1106 (NORAD 44923). STARLINK-1106 can be tracked NOW for your location showing map with azimuth and elevation plus other details from your city location.

Track the satellite on the map from your city or location and see movement details for azimuth, elevation, latitude, longitude, range, height, and movement on the map or in text.







IsCatalogInMostPopularTable: catalog: 44923, numindb: 13
Update: records affected: 1



GetName: 44923 STARLINK-1106

Hit Count: updated at: Wed, 26 Feb 2020 16:50:27 GMT